This demonstration page uses our WeatherBlox Daily Observations layout. Learn more.

Left ArrowRight Arrow

Hourly Observations for September 21, 2022

Temp ( °F °C ) Dew Point ( °F °C ) Humidity (%) Winds ( mph kmh ) Pressure ( in mb ) Visibility ( mi km ) Precip ( " mm )
5:53 am 05:53 Clear 75 24 66 19 74 74 ESE 9 15 29.93 1013 10 16 0.00 0.00
6:53 am 06:53 Sunny 77 25 68 20 74 74 SE 9 15 29.98 1015 10 16 0.00 0.00
7:53 am 07:53 Sunny 81 27.2 68 20 65 65 ESE 5 7 30.00 1016 10 16 0.00 0.00
8:25 am 08:25 Sunny 82 27.8 68 20 63 63 S 3 6 29.97 1015 10 16 0.00 0.00
8:53 am 08:53 Sunny 84 29 68 20 58 58 SW 8 13 29.97 1015 10 16 0.00 0.00
9:53 am 09:53 Sunny 84 28.9 70 21.1 63 63 SSW 9 15 30.01 1016 10 16 0.00 0.00
10:53 am 10:53 Sunny 85 29.4 70 21.1 61 61 SSW 13 20 29.97 1015 10 16 0.00 0.00
11:53 am 11:53 Partly Cloudy 85 29.4 70 21.1 61 61 SSW 13 20 29.95 1014 10 16 0.00 0.00
12:53 pm 12:53 Mostly Cloudy 86 30 69 20.6 57 57 SSW 14 22 29.92 1013 10 16 0.00 0.00
1:53 pm 13:53 Partly Cloudy 87 30.6 69 20.6 55 55 SSW 14 22 29.90 1013 10 16 0.00 0.00
2:53 pm 14:53 Partly Cloudy 87 30.6 69 20.6 55 55 SSW 13 20 29.88 1012 10 16 0.00 0.00
3:53 pm 15:53 Partly Cloudy 85 29.4 70 21.1 61 61 SSW 14 22 29.87 1011 10 16 0.00 0.00
4:53 pm 16:53 Mostly Cloudy 84 28.9 70 21.1 63 63 SW 13 20 29.87 1011 10 16 0.00 0.00
5:53 pm 17:53 Mostly Cloudy 83 28.3 69 20.6 63 63 S 8 13 29.88 1012 10 16 0.01 0.13
6:53 pm 18:53 Mostly Cloudy 82 27.8 70 21.1 67 67 SSW 6 9 29.90 1012 10 16 0.00 0.00
7:53 pm 19:53 Cloudy 81 27.2 71 21.7 72 72 E 8 13 29.91 1013 10 16 0.00 0.00
8:15 pm 20:15 Cloudy 81 27.2 71 21.7 72 72 S 5 7 29.92 1013 10 16 0.01 0.13
8:53 pm 20:53 Partly Cloudy 80 26.7 70 21.1 71 71 SE 3 6 29.93 1014 10 16 0.01 0.13
9:53 pm 21:53 Partly Cloudy 81 27.2 66 18.9 61 61 E 5 7 29.94 1014 10 16 0.00 0.00
10:53 pm 22:53 Clear 79 26.1 66 18.9 65 65 E 3 6 29.94 1014 10 16 0.00 0.00
11:53 pm 23:53 Mostly Clear 78 25.6 67 19.4 69 69 ENE 6 9 29.92 1013 10 16 0.00 0.00

Powered by AerisWeather